QPF
0.01 0.01 0.01 0.01 0.00 0.00 0.00 0.01 0.01 0.01 0.01 0.01 0.01 0.02 0.01 0.00 0.00 0.00 0.01 0.01 0.01 0.00 0.00 0.00 0.00 0.00 0.00 0.00 0.00 0.00 0.00 0.00 0.00 0.00 0.00 0.00 0.00 0.00 0.00 0.00 0.00 0.00
0.00 0.00 0.00 0.00 0.00 0.00 0.00 0.00 0.01 0.00 0.00 0.00 0.00 0.01 0.01 0.00 0.00 0.00 0.00 0.01 0.02 0.01 0.00 0.00 0.00 0.00 0.00 0.00 0.00 0.00 0.00 0.00 0.00 0.00 0.00 0.00 0.00 0.00 0.00 0.00 0.00 0.00
0.00 0.00 0.00 0.00 0.00 0.00 0.00 0.00 0.00 0.01 0.00 0.01 0.00 0.00 0.01 0.00 0.00 0.01 0.01 0.00 0.02 0.01 0.00 0.00 0.00 0.00 0.00 0.00 0.00 0.00 0.00 0.00 0.00 0.00 0.00 0.00 0.00 0.00 0.00 0.00 0.00 0.00
0.00 0.00 0.00 0.00 0.00 0.00 0.00 0.00 0.00 0.00 0.00 0.00 0.00 0.00 0.00 0.01 0.01 0.00 0.01 0.01 0.01 0.01 0.03 0.01 0.00 0.00 0.00 0.00 0.00 0.00 0.00 0.00 0.00 0.00 0.00 0.00 0.00 0.00 0.00 0.00 0.00 0.00
0.00 0.00 0.00 0.00 0.00 0.00 0.00 0.00 0.00 0.00 0.00 0.00 0.00 0.00 0.00 0.01 0.01 0.01 0.01 0.01 0.01 0.01 0.01 0.03 0.02 0.00 0.00 0.00 0.00 0.00 0.00 0.00 0.00 0.00 0.00 0.00 0.00 0.00 0.00 0.00 0.00 0.00
0.00 0.00 0.00 0.00 0.00 0.00 0.00 0.00 0.00 0.00 0.00 0.00 0.00 0.00 0.00 0.00 0.00 0.00 0.00 0.00 0.01 0.01 0.02 0.02 0.02 0.02 0.00 0.00 0.00 0.00 0.00 0.00 0.00 0.00 0.00 0.00 0.00 0.00 0.00 0.00 0.00 0.00
0.00 0.00 0.00 0.00 0.00 0.00 0.00 0.00 0.00 0.00 0.00 0.00 0.00 0.00 0.00 0.00 0.00 0.00 0.00 0.00 0.00 0.00 0.00 0.03 0.01 0.04 0.00 0.00 0.00 0.00 0.00 0.00 0.00 0.00 0.00 0.00 0.00 0.00 0.00 0.00 0.00 0.00
0.00 0.00 0.00 0.00 0.00 0.00 0.00 0.00 0.00 0.00 0.00 0.00 0.00 0.00 0.00 0.00 0.00 0.00 0.00 0.00 0.00 0.00 0.00 0.00 0.01 0.02 0.00 0.00 0.00 0.00 0.00 0.00 0.00 0.00 0.00 0.00 0.00 0.00 0.00 0.00 0.00 0.00
0.00 0.00 0.00 0.00 0.00 0.00 0.00 0.00 0.00 0.00 0.00 0.00 0.00 0.00 0.00 0.00 0.00 0.00 0.00 0.00 0.00 0.00 0.00 0.00 0.00 0.01 0.01 0.00 0.00 0.00 0.00 0.00 0.00 0.00 0.00 0.00 0.00 0.00 0.00 0.00 0.00 0.00
0.00 0.00 0.00 0.00 0.00 0.00 0.00 0.00 0.00 0.00 0.00 0.00 0.00 0.00 0.00 0.00 0.00 0.00 0.00 0.00 0.00 0.00 0.00 0.00 0.00 0.00 0.00 0.00 0.00 0.00 0.00 0.00 0.00 0.00 0.00 0.00 0.00 0.00 0.00 0.00 0.00 0.00
0.00 0.00 0.00 0.00 0.00 0.00 0.00 0.00 0.00 0.00 0.00 0.00 0.00 0.00 0.00 0.00 0.00 0.00 0.00 0.00 0.00 0.00 0.00 0.00 0.00 0.00 0.00 0.00 0.00 0.00 0.00 0.00 0.00 0.00 0.00 0.00 0.00 0.00 0.00 0.00 0.00 0.00
0.00 0.00 0.00 0.00 0.00 0.00 0.00 0.00 0.00 0.00 0.00 0.00 0.00 0.00 0.00 0.00 0.00 0.00 0.00 0.00 0.00 0.00 0.00 0.00 0.00 0.00 0.00 0.00 0.00 0.00 0.00 0.00 0.00 0.00 0.00 0.00 0.00 0.00 0.00 0.00 0.00 0.00
0.00 0.00 0.00 0.00 0.00 0.00 0.00 0.00 0.00 0.00 0.00 0.00 0.00 0.00 0.00 0.00 0.00 0.00 0.00 0.00 0.00 0.00 0.00 0.00 0.00 0.00 0.00 0.00 0.00 0.00 0.00 0.00 0.00 0.00 0.00 0.00 0.00 0.00 0.00 0.00 0.00 0.00
0.00 0.00 0.00 0.00 0.00 0.00 0.00 0.00 0.00 0.00 0.00 0.00 0.00 0.00 0.00 0.00 0.00 0.00 0.00 0.00 0.00 0.00 0.00 0.00 0.00 0.00 0.00 0.00 0.00 0.00 0.00 0.00 0.00 0.00 0.00 0.00 0.00 0.00 0.00 0.00 0.00 0.00
0.00 0.00 0.00 0.00 0.00 0.00 0.00 0.00 0.00 0.00 0.00 0.00 0.00 0.00 0.00 0.00 0.01 0.00 0.00 0.00 0.00 0.00 0.00 0.00 0.00 0.00 0.00 0.00 0.00 0.00 0.00 0.00 0.00 0.00 0.00 0.00 0.00 0.00 0.00 0.00 0.00 0.00
0.00 0.00 0.00 0.00 0.00 0.00 0.00 0.00 0.00 0.00 0.00 0.00 0.00 0.00 0.01 0.00 0.00 0.00 0.00 0.00 0.00 0.00 0.00 0.00 0.00 0.00 0.00 0.00 0.00 0.00 0.00 0.00 0.00 0.00 0.00 0.00 0.00 0.00 0.00 0.00 0.00 0.00
0.00 0.00 0.00 0.00 0.00 0.00 0.00 0.00 0.00 0.00 0.00 0.00 0.01 0.02 0.00 0.00 0.00 0.00 0.00 0.01 0.00 0.00 0.00 0.00 0.00 0.01 0.00 0.00 0.00 0.00 0.00 0.00 0.00 0.00 0.00 0.00 0.00 0.00 0.00 0.00 0.00 0.00
0.00 0.00 0.00 0.00 0.00 0.00 0.00 0.00 0.00 0.00 0.00 0.00 0.00 0.00 0.00 0.00 0.00 0.00 0.00 0.00 0.00 0.00 0.00 0.01 0.01 0.00 0.00 0.00 0.00 0.00 0.00 0.00 0.01 0.00 0.00 0.00 0.00 0.00 0.00 0.00 0.00 0.00
0.00 0.00 0.00 0.00 0.00 0.00 0.00 0.00 0.00 0.00 0.00 0.00 0.01 0.00 0.00 0.00 0.00 0.00 0.00 0.01 0.00 0.01 0.01 0.05 0.11 0.09 0.00 0.00 0.00 0.05 0.01 0.07 0.06 0.04 0.00 0.01 0.01 0.00 0.00 0.00 0.00 0.00
0.00 0.00 0.00 0.00 0.00 0.00 0.00 0.00 0.00 0.00 0.01 0.01 0.01 0.01 0.01 0.02 0.05 0.00 0.01 0.01 0.03 0.02 0.03 0.11 0.07 0.01 0.00 0.01 0.09 0.03 0.00 0.05 0.09 0.24 0.11 0.34 0.24 0.05 0.03 0.01 0.01 0.02
0.00 0.00 0.00 0.00 0.00 0.00 0.00 0.00 0.00 0.00 0.00 0.00 0.01 0.01 0.01 0.02 0.02 0.01 0.03 0.01 0.03 0.03 0.19 0.10 0.23 0.02 0.06 0.03 0.05 0.00 0.00 0.00 0.06 0.21 0.17 0.67 0.45 0.16 0.20 0.12 0.25 0.13
0.00 0.00 0.00 0.00 0.00 0.00 0.00 0.00 0.00 0.00 0.00 0.00 0.01 0.02 0.01 0.02 0.02 0.00 0.00 0.04 0.09 0.09 0.11 0.20 0.18 0.06 0.01 0.02 0.02 0.03 0.10 0.30 0.17 0.25 0.37 0.28 0.19 0.11 0.14 0.11 0.38 0.35
0.00 0.00 0.00 0.00 0.00 0.00 0.00 0.00 0.00 0.00 0.00 0.01 0.01 0.01 0.02 0.01 0.00 0.01 0.00 0.02 0.01 0.06 0.15 0.25 0.35 0.08 0.01 0.03 0.01 0.01 0.06 0.10 0.08 0.09 0.03 0.05 0.05 0.09 0.12 0.15 0.21 0.08
0.00 0.00 0.00 0.00 0.00 0.00 0.00 0.00 0.00 0.00 0.00 0.00 0.03 0.00 0.01 0.03 0.02 0.01 0.00 0.00 0.01 0.00 0.02 0.04 0.04 0.11 0.04 0.09 0.21 0.24 0.02 0.01 0.01 0.04 0.03 0.08 0.08 0.03 0.13 0.11 0.28 0.07
0.00 0.00 0.00 0.00 0.00 0.00 0.00 0.00 0.00 0.00 0.00 0.00 0.00 0.00 0.00 0.01 0.02 0.00 0.01 0.02 0.02 0.02 0.01 0.01 0.02 0.04 0.03 0.02 0.01 0.07 0.36 0.07 0.02 0.15 0.05 0.00 0.09 0.11 0.16 0.12 0.17 0.05
0.00 0.00 0.00 0.00 0.00 0.00 0.00 0.00 0.00 0.00 0.00 0.00 0.00 0.01 0.02 0.01 0.03 0.02 0.03 0.04 0.02 0.00 0.03 0.00 0.02 0.04 0.08 0.00 0.01 0.00 0.07 0.07 0.07 0.41 0.09 0.07 0.02 0.05 0.11 0.07 0.06 0.09
MSLP
1013.52 1013.56 1013.72 1013.72 1013.76 1013.72 1013.80 1013.88 1013.84 1013.92 1013.88 1013.84 1014.00 1013.96 1013.96 1013.84 1013.72 1013.84 1013.84 1013.92 1013.92 1013.92 1013.92 1013.88 1013.92 1014.04 1014.16 1014.20 1014.16 1014.28 1014.36 1014.44 1014.40 1014.40 1014.44 1014.48 1014.48 1014.44 1014.48 1014.44 1014.44 1014.48
1013.40 1013.40 1013.48 1013.52 1013.64 1013.56 1013.52 1013.52 1013.64 1013.68 1013.68 1013.64 1013.60 1013.64 1013.60 1013.60 1013.60 1013.64 1013.80 1013.84 1013.80 1013.84 1013.72 1013.80 1013.84 1013.88 1013.96 1014.12 1014.16 1014.28 1014.32 1014.32 1014.36 1014.08 1014.28 1014.36 1014.36 1014.32 1014.36 1014.28 1014.32 1014.28
1013.20 1013.28 1013.32 1013.48 1013.52 1013.48 1013.36 1013.28 1013.40 1013.52 1013.60 1013.52 1013.44 1013.48 1013.52 1013.44 1013.52 1013.52 1013.60 1013.68 1013.72 1013.68 1013.64 1013.68 1013.72 1013.72 1013.84 1013.92 1014.00 1014.16 1014.24 1014.28 1014.36 1014.12 1014.16 1014.28 1014.28 1014.28 1014.16 1014.08 1014.16 1014.12
1013.12 1013.16 1013.24 1013.16 1013.08 1013.16 1013.12 1013.24 1013.28 1013.28 1013.28 1013.40 1013.44 1013.32 1013.28 1013.28 1013.36 1013.48 1013.48 1013.48 1013.60 1013.64 1013.56 1013.60 1013.68 1013.64 1013.60 1013.64 1013.76 1013.92 1013.96 1013.96 1013.96 1014.00 1014.12 1014.12 1014.12 1014.04 1014.00 1013.96 1014.00 1013.96
1012.88 1012.92 1012.88 1012.88 1012.80 1012.80 1012.92 1013.16 1013.16 1013.12 1013.12 1013.08 1013.04 1013.04 1013.12 1013.16 1013.28 1013.32 1013.36 1013.40 1013.36 1013.44 1013.44 1013.48 1013.52 1013.56 1013.52 1013.52 1013.52 1013.72 1013.72 1013.84 1013.76 1013.80 1013.92 1014.00 1013.88 1013.88 1013.80 1013.80 1013.92 1013.96
1012.68 1012.68 1012.64 1012.72 1012.76 1012.84 1012.96 1013.00 1013.00 1013.00 1013.00 1013.00 1013.00 1012.88 1012.92 1012.88 1012.96 1013.04 1013.04 1013.12 1013.08 1013.12 1013.12 1013.12 1013.24 1013.32 1013.32 1013.40 1013.36 1013.40 1013.48 1013.60 1013.60 1013.56 1013.64 1013.76 1013.64 1013.48 1013.56 1013.60 1013.72 1013.76
1012.68 1012.60 1012.64 1012.52 1012.60 1012.60 1012.72 1012.76 1012.76 1012.80 1012.84 1012.80 1012.76 1012.84 1012.76 1012.84 1012.80 1012.72 1012.64 1012.68 1012.68 1012.68 1012.72 1012.72 1012.88 1012.96 1013.04 1013.20 1013.28 1013.28 1013.24 1013.24 1013.24 1013.28 1013.36 1013.32 1013.28 1013.32 1013.20 1013.28 1013.36 1013.52
1012.44 1012.32 1012.36 1012.40 1012.48 1012.52 1012.60 1012.60 1012.60 1012.60 1012.52 1012.56 1012.72 1012.60 1012.52 1012.56 1012.52 1012.40 1012.36 1012.36 1012.44 1012.40 1012.36 1012.36 1012.36 1012.40 1012.52 1012.72 1013.00 1013.12 1013.04 1012.92 1012.96 1013.00 1013.16 1013.16 1013.04 1013.08 1013.00 1012.96 1013.04 1013.16
1012.16 1012.24 1012.24 1012.32 1012.40 1012.44 1012.52 1012.44 1012.40 1012.40 1012.28 1012.44 1012.48 1012.40 1012.20 1012.20 1012.20 1012.16 1012.12 1012.08 1012.16 1012.16 1012.12 1012.08 1012.04 1012.04 1012.04 1012.28 1012.48 1012.64 1012.72 1012.68 1012.64 1012.72 1012.80 1012.88 1012.92 1012.80 1012.68 1012.64 1012.72 1012.76
1012.08 1012.08 1012.16 1012.24 1012.36 1012.32 1012.40 1012.28 1012.20 1012.20 1012.16 1012.24 1012.20 1012.12 1012.16 1012.00 1011.92 1011.96 1012.00 1012.00 1012.00 1011.96 1011.88 1011.84 1011.80 1011.76 1011.80 1011.84 1011.96 1012.12 1012.28 1012.36 1012.28 1012.32 1012.36 1012.44 1012.48 1012.44 1012.36 1012.28 1012.32 1012.44
1012.00 1012.00 1012.12 1012.16 1012.20 1012.12 1012.16 1012.08 1012.04 1012.00 1011.96 1012.04 1012.00 1012.00 1011.88 1011.84 1011.80 1011.68 1011.80 1011.84 1011.92 1011.88 1011.80 1011.68 1011.52 1011.44 1011.44 1011.48 1011.52 1011.56 1011.72 1011.88 1011.96 1011.88 1011.88 1011.92 1011.92 1011.92 1011.92 1011.96 1012.04 1012.00
1011.88 1011.92 1011.96 1012.00 1011.96 1011.92 1011.88 1011.80 1011.76 1011.76 1011.76 1011.72 1011.64 1011.72 1011.60 1011.52 1011.60 1011.56 1011.56 1011.64 1011.56 1011.52 1011.40 1011.28 1011.08 1011.04 1011.08 1011.08 1011.12 1011.20 1011.32 1011.44 1011.52 1011.56 1011.48 1011.40 1011.40 1011.44 1011.48 1011.56 1011.64 1011.60
1011.72 1011.68 1011.64 1011.68 1011.68 1011.64 1011.56 1011.56 1011.56 1011.52 1011.48 1011.52 1011.36 1011.40 1011.44 1011.44 1011.32 1011.32 1011.16 1011.20 1011.16 1011.08 1011.08 1011.04 1010.96 1010.84 1010.80 1010.76 1010.76 1010.76 1010.92 1011.08 1011.20 1011.24 1011.16 1011.12 1011.12 1011.16 1011.16 1011.20 1011.24 1011.24
1011.48 1011.36 1011.36 1011.32 1011.28 1011.28 1011.32 1011.28 1011.28 1011.28 1011.24 1011.16 1011.16 1011.24 1011.28 1011.24 1011.20 1011.20 1011.04 1010.96 1010.92 1010.84 1010.72 1010.60 1010.60 1010.60 1010.52 1010.48 1010.48 1010.52 1010.60 1010.68 1010.76 1010.88 1010.92 1010.88 1010.88 1010.92 1010.96 1010.96 1010.96 1010.92
1011.08 1011.00 1010.92 1010.92 1010.96 1011.00 1011.00 1011.00 1011.00 1010.92 1010.88 1010.88 1010.88 1010.92 1010.84 1010.80 1010.76 1010.76 1010.84 1010.84 1010.68 1010.64 1010.52 1010.36 1010.32 1010.28 1010.20 1010.24 1010.32 1010.32 1010.28 1010.36 1010.40 1010.48 1010.60 1010.72 1010.72 1010.72 1010.68 1010.64 1010.64 1010.60
1010.68 1010.68 1010.68 1010.68 1010.72 1010.80 1010.76 1010.72 1010.72 1010.64 1010.64 1010.68 1010.64 1010.56 1010.56 1010.48 1010.48 1010.44 1010.44 1010.44 1010.48 1010.44 1010.36 1010.24 1010.08 1009.88 1009.72 1009.68 1009.76 1009.92 1010.04 1010.08 1010.08 1010.08 1010.16 1010.32 1010.48 1010.52 1010.44 1010.36 1010.28 1010.20
1010.48 1010.60 1010.60 1010.64 1010.64 1010.72 1010.76 1010.68 1010.64 1010.56 1010.56 1010.52 1010.48 1010.44 1010.44 1010.32 1010.24 1010.28 1010.20 1010.12 1010.12 1010.12 1010.12 1009.92 1009.76 1009.56 1009.48 1009.60 1009.64 1009.60 1009.60 1009.72 1009.80 1009.80 1009.80 1009.88 1010.08 1010.20 1010.24 1010.12 1009.96 1009.84
1010.56 1010.60 1010.72 1010.76 1010.76 1010.84 1010.80 1010.72 1010.68 1010.64 1010.64 1010.60 1010.48 1010.40 1010.24 1010.08 1010.12 1010.04 1009.96 1009.88 1009.84 1009.80 1009.76 1009.60 1009.44 1009.44 1009.48 1009.68 1009.84 1009.80 1009.68 1009.64 1009.64 1009.52 1009.40 1009.44 1009.60 1009.72 1009.72 1009.68 1009.64 1009.56
1010.68 1010.88 1010.96 1011.08 1011.12 1011.08 1011.12 1011.08 1011.04 1011.04 1011.12 1011.08 1011.00 1010.68 1010.44 1010.36 1010.16 1010.04 1010.00 1009.84 1009.76 1009.76 1009.68 1009.80 1010.52 1010.60 1010.52 1010.52 1010.48 1010.44 1010.28 1010.52 1010.76 1010.24 1010.04 1009.68 1009.76 1009.80 1009.68 1009.48 1009.44 1009.40
1011.12 1011.32 1011.52 1011.60 1011.52 1011.52 1011.48 1011.48 1011.52 1011.68 1011.52 1011.28 1011.08 1010.88 1010.80 1010.64 1010.36 1010.20 1010.04 1010.04 1009.96 1009.84 1009.84 1009.96 1009.84 1009.72 1009.76 1010.00 1010.32 1010.20 1010.28 1010.48 1010.80 1010.80 1010.72 1010.80 1010.60 1010.24 1010.12 1010.00 1009.88 1010.12
1011.68 1011.88 1012.04 1012.04 1011.92 1011.84 1011.84 1011.88 1011.96 1011.88 1011.72 1011.48 1011.36 1011.24 1011.08 1010.92 1010.72 1010.52 1010.28 1010.12 1009.96 1009.84 1009.92 1009.88 1009.88 1009.84 1009.88 1009.92 1009.92 1010.08 1010.28 1010.72 1010.76 1010.72 1011.00 1011.08 1011.08 1011.16 1010.88 1010.24 1009.68 1009.88
1012.12 1012.28 1012.40 1012.36 1012.20 1012.12 1012.20 1012.24 1012.16 1012.00 1011.88 1011.64 1011.56 1011.36 1011.12 1010.88 1010.68 1010.52 1010.48 1010.32 1010.08 1009.88 1009.92 1010.12 1009.96 1010.00 1010.08 1010.16 1010.36 1010.32 1010.32 1010.24 1010.16 1010.28 1010.32 1010.32 1010.28 1010.32 1010.04 1009.92 1009.64 1009.72
1012.48 1012.60 1012.72 1012.64 1012.44 1012.44 1012.56 1012.48 1012.36 1012.12 1011.92 1011.72 1011.76 1011.56 1011.28 1011.04 1010.92 1010.80 1010.60 1010.48 1010.36 1010.16 1010.24 1010.24 1010.32 1010.24 1010.16 1010.32 1010.32 1010.44 1010.44 1010.24 1010.04 1010.00 1009.92 1009.88 1009.84 1009.88 1009.96 1009.68 1009.08 1009.00
1012.64 1012.76 1012.88 1012.88 1012.68 1012.72 1012.72 1012.52 1012.28 1012.08 1011.92 1011.72 1011.80 1011.68 1011.40 1011.20 1011.00 1010.84 1010.64 1010.48 1010.36 1010.36 1010.36 1010.48 1010.64 1010.48 1010.44 1010.40 1010.52 1010.76 1010.84 1010.44 1010.08 1009.92 1009.84 1009.80 1009.68 1009.52 1009.36 1009.16 1008.92 1008.72
1012.72 1012.84 1013.00 1013.04 1012.88 1012.80 1012.72 1012.68 1012.44 1012.20 1011.92 1011.76 1011.72 1011.48 1011.28 1011.08 1010.96 1010.84 1010.64 1010.36 1010.20 1010.20 1010.24 1010.44 1010.60 1010.92 1011.04 1011.08 1011.00 1010.84 1010.64 1010.48 1010.36 1010.24 1010.16 1009.92 1009.72 1009.52 1009.24 1009.04 1008.88 1008.76
1012.92 1013.04 1013.16 1013.12 1012.96 1012.88 1012.88 1012.76 1012.44 1012.28 1012.16 1012.04 1011.88 1011.60 1011.44 1011.32 1011.16 1011.00 1010.88 1010.56 1010.20 1010.12 1010.28 1010.40 1010.76 1011.12 1011.16 1011.08 1011.04 1011.12 1011.12 1010.96 1010.76 1010.72 1010.60 1010.36 1010.12 1009.92 1009.60 1009.20 1008.92 1008.72
Thickness
5675 5673 5671 5670 5668 5667 5666 5665 5664 5662 5662 5661 5659 5658 5658 5657 5657 5656 5654 5653 5653 5652 5651 5650 5649 5647 5644 5643 5643 5641 5640 5638 5637 5637 5637 5635 5635 5635 5634 5633 5633 5632
5676 5675 5673 5671 5670 5669 5669 5667 5666 5664 5663 5663 5662 5661 5660 5659 5658 5657 5655 5654 5652 5652 5651 5650 5649 5647 5645 5644 5642 5641 5639 5638 5637 5637 5636 5635 5634 5634 5633 5633 5632 5631
5678 5676 5675 5673 5672 5671 5671 5670 5668 5667 5665 5664 5663 5662 5662 5660 5659 5658 5657 5655 5653 5653 5652 5651 5649 5648 5647 5644 5643 5641 5639 5637 5637 5637 5636 5634 5633 5633 5632 5632 5631 5631
5679 5678 5677 5676 5675 5674 5673 5671 5670 5668 5667 5666 5664 5664 5663 5662 5660 5658 5657 5656 5655 5653 5652 5650 5649 5648 5647 5646 5644 5642 5640 5639 5638 5637 5635 5633 5633 5633 5632 5632 5630 5630
5681 5680 5679 5678 5677 5676 5674 5672 5670 5670 5669 5667 5666 5666 5664 5663 5661 5659 5658 5657 5655 5654 5653 5652 5650 5648 5647 5646 5645 5643 5641 5639 5638 5638 5635 5633 5634 5633 5633 5631 5630 5629
5683 5682 5681 5680 5679 5677 5675 5673 5672 5671 5669 5668 5667 5666 5665 5664 5662 5661 5660 5659 5657 5656 5655 5654 5652 5650 5648 5646 5645 5644 5642 5640 5639 5639 5636 5635 5635 5634 5633 5632 5630 5629
5684 5683 5683 5681 5680 5679 5676 5674 5673 5672 5671 5669 5668 5667 5666 5664 5663 5663 5662 5661 5660 5659 5657 5656 5654 5652 5650 5648 5646 5644 5643 5642 5641 5639 5637 5636 5636 5634 5634 5632 5631 5629
5686 5685 5684 5683 5681 5680 5678 5676 5674 5674 5673 5671 5669 5668 5668 5666 5665 5665 5664 5662 5661 5659 5658 5658 5656 5655 5653 5650 5647 5645 5644 5643 5642 5640 5638 5637 5636 5634 5634 5633 5631 5630
5688 5687 5685 5684 5682 5680 5678 5677 5676 5675 5674 5672 5670 5669 5669 5668 5666 5665 5664 5663 5661 5660 5659 5659 5657 5657 5655 5653 5649 5647 5645 5644 5643 5641 5639 5637 5636 5635 5635 5634 5633 5631
5689 5688 5686 5684 5682 5680 5678 5677 5676 5675 5674 5672 5671 5670 5669 5668 5667 5666 5664 5663 5661 5660 5659 5658 5657 5657 5655 5653 5652 5649 5646 5645 5644 5643 5642 5640 5638 5637 5636 5636 5634 5632
5689 5687 5686 5683 5682 5681 5679 5678 5677 5676 5674 5672 5671 5670 5669 5668 5667 5666 5664 5662 5661 5660 5659 5659 5658 5657 5656 5654 5653 5651 5648 5646 5644 5643 5643 5641 5640 5639 5638 5636 5634 5634
5689 5687 5685 5684 5683 5682 5680 5679 5678 5676 5675 5673 5672 5671 5669 5669 5668 5666 5665 5663 5662 5661 5659 5659 5659 5658 5657 5655 5653 5652 5650 5647 5645 5644 5643 5642 5641 5639 5638 5637 5635 5634
5689 5687 5687 5685 5684 5683 5681 5680 5678 5677 5675 5673 5673 5671 5669 5668 5667 5666 5666 5664 5663 5662 5660 5659 5659 5658 5656 5655 5654 5652 5650 5647 5645 5644 5643 5642 5640 5639 5638 5637 5636 5634
5690 5688 5688 5686 5685 5683 5682 5680 5679 5677 5675 5674 5673 5671 5669 5668 5667 5665 5665 5663 5662 5662 5661 5660 5659 5657 5656 5653 5652 5651 5649 5647 5644 5642 5641 5640 5639 5638 5637 5635 5635 5634
5691 5690 5689 5687 5685 5684 5682 5681 5679 5677 5676 5674 5673 5671 5670 5669 5667 5666 5664 5663 5661 5660 5660 5659 5659 5658 5657 5654 5651 5649 5647 5646 5644 5641 5639 5637 5636 5636 5635 5634 5633 5632
5692 5691 5689 5687 5685 5684 5682 5680 5679 5677 5675 5674 5672 5671 5669 5668 5667 5666 5664 5663 5661 5659 5657 5657 5657 5657 5658 5656 5652 5648 5645 5643 5642 5640 5639 5636 5634 5633 5632 5633 5632 5632
5692 5690 5687 5686 5684 5681 5679 5678 5677 5675 5673 5672 5671 5670 5668 5667 5665 5663 5663 5662 5660 5658 5656 5656 5656 5656 5655 5652 5650 5648 5644 5641 5639 5638 5638 5636 5633 5631 5630 5631 5631 5630
5689 5686 5684 5682 5680 5678 5676 5675 5674 5672 5670 5668 5667 5666 5666 5665 5663 5661 5659 5659 5657 5655 5654 5653 5651 5649 5647 5643 5641 5640 5640 5637 5634 5634 5635 5634 5631 5630 5629 5629 5628 5626
5684 5681 5678 5675 5674 5672 5670 5669 5668 5665 5663 5662 5661 5661 5660 5660 5659 5657 5656 5654 5652 5650 5649 5647 5644 5641 5638 5635 5633 5633 5631 5629 5626 5626 5627 5625 5622 5622 5622 5623 5622 5620
5676 5673 5670 5667 5666 5665 5663 5661 5659 5657 5656 5656 5655 5654 5653 5653 5652 5652 5651 5648 5646 5645 5643 5641 5640 5638 5635 5631 5629 5628 5626 5623 5620 5618 5617 5614 5612 5613 5613 5614 5615 5612
5669 5666 5662 5660 5659 5658 5656 5654 5652 5651 5650 5650 5649 5648 5647 5647 5646 5646 5645 5643 5642 5640 5638 5636 5634 5633 5630 5626 5624 5622 5619 5617 5615 5613 5612 5609 5606 5606 5605 5607 5608 5606
5662 5659 5655 5654 5653 5651 5649 5647 5645 5645 5645 5644 5644 5642 5643 5643 5642 5640 5638 5636 5636 5635 5633 5630 5628 5626 5622 5618 5617 5615 5613 5613 5612 5610 5609 5607 5605 5602 5601 5603 5605 5603
5655 5652 5649 5647 5646 5644 5641 5639 5639 5639 5639 5639 5637 5636 5636 5637 5636 5634 5632 5630 5629 5627 5625 5623 5621 5619 5616 5613 5610 5607 5606 5606 5607 5605 5604 5603 5602 5599 5598 5599 5601 5600
5649 5646 5643 5640 5639 5637 5634 5633 5633 5632 5633 5634 5631 5630 5631 5630 5629 5628 5627 5625 5623 5620 5618 5615 5612 5610 5608 5606 5603 5599 5597 5598 5599 5599 5597 5596 5596 5595 5593 5594 5594 5593
5643 5641 5638 5635 5633 5632 5630 5628 5628 5628 5628 5628 5625 5625 5625 5624 5624 5622 5620 5620 5618 5615 5612 5608 5604 5600 5597 5595 5593 5590 5589 5588 5588 5587 5586 5586 5586 5586 5586 5587 5586 5586
5637 5634 5632 5630 5629 5627 5625 5624 5624 5624 5623 5621 5620 5620 5619 5617 5616 5615 5613 5613 5612 5609 5606 5602 5597 5591 5588 5586 5584 5580 5577 5577 5576 5575 5574 5574 5574 5574 5575 5577 5578 5577